Tracking 28348 objects as of 8-Dec-2023
HD Live streaming from Space Station
objects crossing your sky now

STARLINK-30455

Track STARLINK-30455 now!
10-day predictions
STARLINK-30455 is classified as:


NORAD ID: 57942
Int'l Code: 2023-148H
Perigee: 515.8 km
Apogee: 517.7 km
Inclination: 53.1 °
Period: 94.8 minutes
Semi major axis: 6887 km
RCS: Unknown
Launch date: September 25, 2023
Source: United States (US)
Launch site: AIR FORCE WESTERN TEST RANGE (AFWTR)
Your satellite tracking list
Your tracking list is empty




NASA's NSSDC Master Catalog

Two Line Element Set (TLE):
1 57942U 23148H   23341.78640238 -.00001160  00000-0 -40034-4 0  9991
2 57942  53.0534 237.9596 0001387  82.9391 277.1761 15.18738486 12499
Source of the keplerian elements: AFSPC